Location: Castillon
(43.0896°N, 0.2156°E)
Time: 10:41:35
(UTC+00:00)

Cosmos 1544 Rocket - Pass Details

Date: 27 October 2021
Orbit: 603 x 631 km, 82.5° (Epoch: 08 December)

Event Time Altitude Azimuth Distance (km) Brightness Sun altitude
Rises 05:37:51 0° 340° (NNW) 2,902 6.7 -9.7°
Reaches altitude 10° 05:40:20 10° 328° (NNW) 1,986 5.8 -9.2°
Maximum altitude 05:44:01 27° 271° (W) 1,188 4.4 -8.6°
Drops below altitude 10° 05:47:41 10° 214° (SSW) 1,958 5.9 -7.9°
Sets 05:50:07 0° 202° (SSW) 2,853 6.9 -7.5°
